Regional Weather Roundup
Issued by NWS Cleveland, OH

Home | Current Version | Previous Version | Graphics & Text | Print | Product List | Glossary On
Versions: 1 2 3 4 5 6 7 8 9 10 11 12 13 14 15 16 17 18 19 20 21 22 23 24 25 26 27 28 29 30 31 32 33 34 35 36 37 38 39 40 41 42 43 44 45 46 47 48 49 50
000
ASUS41 KCLE 012200
RWRCLE
OHIO REGIONAL WEATHER ROUNDUP
NATIONAL WEATHER SERVICE WILMINGTON, OH
600 PM EDT WED APR 01 2015

NOTE: "FAIR" INDICATES FEW OR NO CLOUDS BELOW 12,000 FEET WITH NO
SIGNIFICANT WEATHER AND/OR OBSTRUCTIONS TO VISIBILITY.

OHZ001>008-015>018-024>027-034-035-043-044-012300-
   NORTHWEST OHIO

CITY           SKY/WX    TMP DP  RH WIND       PRES   REMARKS
DEFIANCE       SUNNY     66  33  29 VRB6      30.03F
FINDLAY        SUNNY     65  32  29 S5        30.04F
TOLEDO EXPRESS SUNNY     65  31  28 SW9       30.02F
TOLEDO EXEC    SUNNY     64  33  31 VRB6      30.04F
LIMA           SUNNY     66  30  26 S7        30.05S
$$

OHZ009>014-019>023-028>033-038-089-012300-
   NORTHEAST OHIO

CITY           SKY/WX    TMP DP  RH WIND       PRES   REMARKS
CLE-HOPKINS    MOSUNNY   58  35  42 N7        30.11S
CLE-LAKEFRONT  SUNNY     43  32  65 NE9       30.09F
CUY CO. ARPT   NOT AVBL
LORAIN-ELYRIA  SUNNY     60  37  42 SW8       30.08S
ASHTABULA      SUNNY     53  33  46 VRB5      30.10F
AKRON-CANTON   MOSUNNY   59  31  34 W9        30.10F
WOOSTER        NOT AVBL
MANSFIELD      SUNNY     61  33  35 SW6       30.08F
YOUNGSTOWN     MOSUNNY   55  30  38 SW6       30.10F
$$

OHZ042-051>053-060>062-070>072-077>081-012300-
  SOUTHWEST OHIO

CITY           SKY/WX    TMP DP  RH WIND       PRES   REMARKS
CINC-COVINGTON MOSUNNY   66  31  27 SE8       30.07F
CINC-LUNKEN    SUNNY     65  30  27 S9        30.08F
HAMILTON       SUNNY     68  28  22 S5        30.08F
DAYTON         NOT AVBL
WRIGHT-PAT AFB SUNNY     66  30  26 E6        30.07S
DAYTON GENERAL SUNNY     65  30  27 VRB7      30.07S
WILMINGTON     SUNNY     63  27  25 S7        30.08F
$$

OHZ036-037-039>041-045>050-054>059-063>069-073>076-082>088-012300-
  CENTRAL AND SOUTHEAST OHIO

CITY           SKY/WX    TMP DP  RH WIND       PRES   REMARKS
COLUMBUS       SUNNY     62  33  33 S8        30.09S
OSU AIRPORT    SUNNY     63  29  27 CALM      30.08S
BOLTON FIELD   SUNNY     63  36  36 S8        30.09
RICKENBACK AFB NOT AVBL
NEWARK         SUNNY     62  33  33 E8        30.09F
MARION         SUNNY     63  30  28 CALM      30.08S
LANCASTER      SUNNY     62  31  31 CALM      30.11S
ZANESVILLE     SUNNY     61  29  29 NW3       30.11F
NEW PHILLY     SUNNY     62  32  32 NW3       30.11F
$$


USA.gov is the U.S. government's official web portal to all federal, state and local government web resources and services.